Location: Ariel
(45.9570°N, 122.5700°W)
Time: 10:19:00
(UTC-07:00)

Vanguard 3 - Pass Details

Date: 02 September 2019
Orbit: 508 x 3263 km, 33.4° (Epoch: 14 September)

Event Time Altitude Azimuth Distance (km) Brightness Sun altitude
Rises 19:33:47 0° 268° (W) 5,084 13.4 1.4°
Reaches altitude 10° 19:39:07 10° 251° (WSW) 3,480 11.6 0.5°
Maximum altitude 19:43:52 16° 216° (SW) 2,476 10.0 -0.3°
Drops below altitude 10° 19:47:30 10° 179° (S) 2,510 9.5 -0.9°
Sets 19:50:28 0° 156° (SSE) 3,127 9.8 -1.4°
